Regional Weather Roundup
Issued by NWS Boston, MA

Current Version | Previous Version | Text Only | Print | Product List | Glossary Off
Versions: 1 2 3 4 5 6 7 8 9 10 11 12 13 14 15 16 17 18 19 20 21 22 23 24 25 26 27
000 ASUS41 KBOX 172110 RWRBOX REGIONAL WEATHER ROUNDUP NATIONAL WEATHER SERVICE TAUNTON MA 400 PM EST SUN DEC 17 2017 NOTE: "FAIR" INDICATES FEW OR NO CLOUDS BELOW 12,000 FEET WITH NO SIGNIFICANT WEATHER AND/OR OBSTRUCTIONS TO VISIBILITY. MAZALL-172200- EASTERN MASSACHUSETTS CITY SKY/WX TMP DP RH WIND PRES REMARKS BOSTON CLOUDY 29 3 33 W9 30.24R WCI 20 BEVERLY CLOUDY 27 4 37 N6 30.23R WCI 20 LAWRENCE CLOUDY 28 4 35 NW6 30.25R WCI 22 BEDFORD CLOUDY 27 3 35 W6 30.23R WCI 20 BLUE HILL N/A 24 9 52 NW9 30.19R WCI 14 NORWOOD PTCLDY 29 5 36 NW3 30.24R MARSHFIELD CLOUDY 30 1 29 CALM 30.24R PLYMOUTH CLOUDY 29 3 33 CALM 30.24R TAUNTON PTCLDY 29 4 34 VRB3 30.23R NEW BEDFORD CLOUDY 28 6 39 W5 30.23R WCI 23 $$ MAZALL-172200- CAPE COD AND THE ISLANDS CITY SKY/WX TMP DP RH WIND PRES REMARKS FALMOUTH PTCLDY 25 5 42 CALM 30.24R HYANNIS CLOUDY 28 3 34 W3 30.23R CHATHAM PTCLDY 28 10 46 CALM 30.25R PROVINCETOWN CLOUDY 29 12 49 W12 N/A WCI 19 NANTUCKET PTCLDY 27 13 55 W6 30.24R WCI 20 MARTHAS VNYRD MOCLDY N/A N/A N/A NW3 30.23R $$ MAZALL-172200- CENTRAL AND WESTERN MASSACHUSETTS CITY SKY/WX TMP DP RH WIND PRES REMARKS WORCESTER CLOUDY 24 1 36 W8 30.17R WCI 15 FITCHBURG CLOUDY 27 9 46 NW5 30.23R WCI 22 ORANGE NOT AVBL SPRINGFIELD CLOUDY 27 10 49 CALM 30.22S WESTFIELD PTCLDY 28 7 41 NW7 30.23S WCI 21 NORTH ADAMS CLOUDY 22 5 48 NW3 30.23S PITTSFIELD CLOUDY 23 5 46 NW6 30.18R WCI 16 $$ RIZALL-172200- RHODE ISLAND CITY SKY/WX TMP DP RH WIND PRES REMARKS PROVIDENCE CLOUDY 30 5 34 NW6 30.24R WCI 24 NEWPORT PTCLDY 29 8 41 NW6 30.22R WCI 23 BLOCK ISLAND CLOUDY 31 9 39 NW9 30.24R WCI 23 SMITHFIELD MOCLDY 26 8 46 W6 30.22R WCI 19 WESTERLY CLOUDY 31 8 38 NW5 30.25R WCI 26 $$ CTZALL-172200- CONNECTICUT CITY SKY/WX TMP DP RH WIND PRES REMARKS BRADLEY INTL CLOUDY 28 8 43 W9 30.24S WCI 19 HARTFORD CLOUDY 30 12 47 CALM 30.26S BRIDGEPORT CLOUDY 33 18 53 CALM 30.25S DANBURY CLOUDY 31 16 54 NW3 30.24S GROTON CLOUDY 30 10 43 N5 30.25R WCI 25 NEW HAVEN CLOUDY 33 14 45 W5 30.25S WCI 29 CHESTER FAIR 30 10 43 CALM 30.23S MERIDEN CLOUDY 31 8 38 N3 30.24S WILLIMANTIC CLOUDY 29 9 43 W5 30.25R WCI 24 OXFORD CLOUDY 29 12 49 NW3 30.22R $$ MEZ002-015-021-024-NHZ003-005-008-011-012-014-VTZ005-008-172200- NORTHERN NEW ENGLAND CITY SKY/WX TMP DP RH WIND PRES REMARKS PORTLAND ME PTCLDY 23 5 46 N7 30.21R WCI 15 BANGOR ME PTCLDY 17 5 59 NW10 30.18R WCI 5 CONCORD NH CLOUDY 22 4 46 NW9 30.22R WCI 12 MANCHESTER NH CLOUDY 25 3 38 NW7 30.21R WCI 17 NASHUA NH CLOUDY 25 6 44 NW5 30.24R WCI 19 PORTSMOUTH NH MOCLDY 23 0 36 W8 30.21R WCI 14 JAFFREY NH PTCLDY 22 6 50 CALM 30.18R KEENE NH CLOUDY 22 7 52 N3 30.24R BURLINGTON VT MOCLDY 14 1 56 N6 30.31R WCI 5 MT. WASHINGTON PTCLDY 3 -18 36 NW51 N/A WCI -27 $$ NYZ052-076-172200- EASTERN NEW YORK CITY SKY/WX TMP DP RH WIND PRES REMARKS ALBANY CLOUDY 25 11 55 NW10 30.26S WCI 15 NEW YORK CITY CLOUDY 36 25 64 NE6 30.24R WCI 31 $$ ANZALL-172200- MARINE OBSERVATIONS STATION/POSITION TIME TEMP WIND PRES VSBY WAVE AIR SEA DIR/SP/G HT/PER (UTC) (F) (DEG/KT/KT) (MB) (MI) (FT/S) BOSTON BUOY 2050 30 47 300/ 14/ 17 1023.5R 2/ 3 BUZZARDS BAY 2000 31 320/ 8/ 9 1023.9F NANTUCKET SOUND 2050 29 39 300/ 6/ 10 1024.2R 1 MASS BAY-STELLWA 2004 28 46 310/ 12/ 16 1022.6S 2/ 3 ISLE OF SHOALS 2000 26 300/ 17/ 19 1021.8F S OF BLOCK IS 2043 52 N/A 3/ 7 $$ ......................KEY......................... SKY/WX - SKY CONDITION/PRESENT WEATHER TMP - TEMPERATURE IN FAHRENHEIT DWPT - DEWPOINT IN FAHRENHEIT RH - RELATIVE HUMIDITY IN PERCENT WIND - DIRECTION AND SPEED IN MPH PRES - MEAN SEA LEVEL PRESSURE IN INCHES OF HG WCI - WIND CHILL INDEX VSB - VISIBILITY IN MILES HX - HEAT INDEX TC - TEMPERATURE IN CELSIUS VRB - VARIABLE WIND DIRECTION N/A - NOT AVAILABLE

USA.gov is the U.S. government's official web portal to all federal, state and local government web resources and services.